FW9412 Weather Reports


Display with metric or nautical units.
time (UTC)temp
F
wind
direction
speed
MPH
gust
MPH
rain 1hr
in
rain 24hr
in
rain mn
in
humidity
%
barometer
mb
20260905200238 71 240 2.0 2.0 0.00 0.00 0.00 75 1013.3
20260905195735 71 330 2.0 2.0 0.00 0.00 0.00 74 1013.4
20260905195230 71 97 0.0 1.0 0.00 0.00 0.00 73 1013.2
20260905194726 72 184 1.0 2.0 0.00 0.00 0.00 72 1013.4
20260905194226 71 102 2.0 2.0 0.00 0.00 0.00 74 1013.2
20260905193725 71 226 1.0 2.0 0.00 0.00 0.00 72 1013.4
20260905193220 71 186 1.0 1.0 0.00 0.00 0.00 72 1013.3
20260905192716 71 222 3.0 3.0 0.00 0.00 0.00 75 1013.2
20260905192212 72 130 1.0 1.0 0.00 0.00 0.00 74 1013.3
20260905191711 71 336 2.0 2.0 0.00 0.00 0.00 77 1013.1
20260905191209 70 169 2.0 2.0 0.00 0.00 0.00 79 1013.6
20260905190708 71 207 1.0 1.0 0.00 0.00 0.00 77 1013.2
20260905190207 70 203 1.0 1.0 0.00 0.00 0.00 75 1013.1
20260905185706 70 181 2.0 3.0 0.00 0.00 0.00 74 1013.3
20260905185201 70 146 2.0 3.0 0.00 0.00 0.00 74 1013.3
20260905184701 71 209 2.0 3.0 0.00 0.00 0.00 75 1013.2
20260905184200 71 196 1.0 1.0 0.00 0.00 0.00 75 1013.2
20260905183654 71 161 0.0 0.0 0.00 0.00 0.00 75 1013.3
20260905183149 71 180 1.0 1.0 0.00 0.00 0.00 76 1013.3
20260905182648 71 98 1.0 2.0 0.00 0.00 0.00 75 1013.2
20260905182143 71 157 1.0 2.0 0.00 0.00 0.00 73 1013.3
20260905181638 71 207 1.0 1.0 0.00 0.00 0.00 72 1013.2
20260905181137 70 28 1.0 2.0 0.00 0.00 0.00 75 1013.3
20260905180632 70 168 0.0 0.0 0.00 0.00 0.00 76 1013.4
20260905180127 71 170 0.0 0.0 0.00 0.00 0.00 74 1013.5
20260905175626 71 170 0.0 1.0 0.00 0.00 0.00 71 1013.4
20260905175122 71 180 1.0 1.0 0.00 0.00 0.00 71 1013.1
20260905174617 70 129 0.0 1.0 0.00 0.00 0.00 72 1013.3
20260905174113 71 191 0.0 1.0 0.00 0.00 0.00 72 1013.2
20260905173609 71 171 1.0 1.0 0.00 0.00 0.00 74 1013.4
20260905173104 69 288 2.0 2.0 0.00 0.00 0.00 74 1013.2
20260905172603 69 163 0.0 0.0 0.00 0.00 0.00 76 1013.3
20260905172058 69 139 0.0 1.0 0.00 0.00 0.00 75 1013.4
20260905171555 70 144 0.0 0.0 0.00 0.00 0.00 73 1013.3
20260905171050 71 192 2.0 3.0 0.00 0.00 0.00 73 1013.4
20260905170547 70 129 1.0 1.0 0.00 0.00 0.00 74 1013.3
20260905170042 70 161 0.0 0.0 0.00 0.00 0.00 74 1013.6
20260905165537 70 200 1.0 2.0 0.00 0.00 0.00 73 1013.3
20260905165032 69 165 0.0 0.0 0.00 0.00 0.00 77 1013.6
20260905164526 70 207 1.0 1.0 0.00 0.00 0.00 75 1013.5
20260905164021 70 168 0.0 0.0 0.00 0.00 0.00 75 1013.3
20260905163517 71 185 1.0 1.0 0.00 0.00 0.00 75 1013.4
20260905163013 71 262 1.0 2.0 0.00 0.00 0.00 74 1013.6
20260905162508 70 195 0.0 0.0 0.00 0.00 0.00 72 1013.5
20260905162003 69 155 0.0 0.0 0.00 0.00 0.00 74 1013.6
20260905161503 69 147 0.0 0.0 0.00 0.00 0.00 78 1013.7
20260905161000 70 170 0.0 1.0 0.00 0.00 0.00 77 1013.6
20260905160500 70 142 1.0 1.0 0.00 0.00 0.00 76 1013.7
20260905155959 70 147 1.0 2.0 0.00 0.00 0.00 77 1013.7
20260905155455 69 273 2.0 2.0 0.00 0.00 0.00 78 1013.4
20260905154953 70 164 0.0 0.0 0.00 0.00 0.00 77 1013.5
20260905154449 70 96 1.0 1.0 0.00 0.00 0.00 79 1013.5
20260905153944 69 99 1.0 1.0 0.00 0.00 0.00 79 1013.8
20260905153440 68 144 1.0 2.0 0.00 0.00 0.00 78 1013.6
20260905152939 68 145 1.0 1.0 0.00 0.00 0.00 80 1013.7
20260905152439 67 158 1.0 1.0 0.00 0.00 0.00 83 1013.7
20260905151939 67 116 0.0 1.0 0.00 0.00 0.00 83 1013.6
20260905151435 68 177 0.0 0.0 0.00 0.00 0.00 82 1013.7
20260905150930 68 141 0.0 1.0 0.00 0.00 0.00 82 1013.8
20260905150430 68 202 0.0 2.0 0.00 0.00 0.00 81 1013.8
20260905145926 68 200 1.0 1.0 0.00 0.00 0.00 81 1013.9
20260905145422 68 173 1.0 1.0 0.00 0.00 0.00 82 1013.9
20260905144921 67 311 2.0 3.0 0.00 0.00 0.00 82 1013.8
20260905144417 68 146 0.0 0.0 0.00 0.00 0.00 83 1014.1
20260905143915 67 311 1.0 2.0 0.00 0.00 0.00 83 1013.7
20260905143409 67 198 0.0 0.0 0.00 0.00 0.00 84 1013.7
20260905142909 67 115 1.0 2.0 0.00 0.00 0.00 85 1013.6
20260905142408 67 223 2.0 2.0 0.00 0.00 0.00 85 1013.7
20260905141904 66 165 0.0 0.0 0.00 0.00 0.00 87 1013.8
20260905141353 66 142 0.0 1.0 0.00 0.00 0.00 88 1013.8
20260905140849 66 176 0.0 1.0 0.00 0.00 0.00 88 1013.6
20260905140349 65 142 0.0 0.0 0.00 0.00 0.00 87 1013.9
20260905135848 66 166 1.0 1.0 0.00 0.00 0.00 89 1013.7
20260905135344 65 132 0.0 1.0 0.00 0.00 0.00 89 1013.5
20260905134839 65 139 0.0 1.0 0.00 0.00 0.00 91 1013.6
20260905134337 64 182 1.0 1.0 0.00 0.00 0.00 92 1013.6
20260905133832 65 157 0.0 0.0 0.00 0.00 0.00 91 1013.8
20260905133328 65 139 0.0 0.0 0.00 0.00 0.00 92 1013.5
20260905132826 64 158 0.0 0.0 0.00 0.00 0.00 93 1013.6
20260905132317 64 171 0.0 0.0 0.00 0.00 0.00 94 1013.5
20260905131816 64 172 0.0 0.0 0.00 0.00 0.00 94 1013.7
20260905131312 64 155 0.0 0.0 0.00 0.00 0.00 94 1013.5
20260905130808 63 168 0.0 0.0 0.00 0.00 0.00 95 1013.9
20260905130306 63 181 0.0 0.0 0.00 0.00 0.00 95 1013.7
20260905125801 63 181 0.0 0.0 0.00 0.00 0.00 96 1013.8
20260905125256 62 169 0.0 0.0 0.00 0.00 0.00 96 1013.9
20260905124753 62 165 0.0 0.0 0.00 0.00 0.00 96 1013.8
20260905124248 62 166 0.0 0.0 0.00 0.00 0.00 97 1013.9
20260905123743 62 160 0.0 0.0 0.00 0.00 0.00 97 1013.8
20260905123240 62 161 0.0 0.0 0.00 0.00 0.00 97 1013.5
20260905122735 61 161 0.0 0.0 0.00 0.00 0.00 97 1013.7
20260905122234 61 160 0.0 0.0 0.00 0.00 0.00 97 1013.8
20260905121729 61 160 0.0 0.0 0.00 0.00 0.00 97 1013.9
20260905121226 61 160 0.0 0.0 0.00 0.00 0.00 97 1013.7
20260905120724 61 154 0.0 0.0 0.00 0.00 0.00 97 1013.6
20260905120219 61 154 0.0 0.0 0.00 0.00 0.00 97 1013.6
20260905115714 61 157 0.0 0.0 0.00 0.00 0.00 97 1013.5
20260905115209 60 157 0.0 0.0 0.00 0.00 0.00 97 1013.6
20260905114709 60 156 0.0 0.0 0.00 0.00 0.00 97 1013.5
20260905114207 60 156 0.0 0.0 0.00 0.00 0.00 97 1013.5
20260905113706 60 156 0.0 0.0 0.00 0.00 0.00 97 1013.5
20260905113203 60 156 0.0 0.0 0.00 0.00 0.00 97 1013.3
20260905112702 60 156 0.0 0.0 0.00 0.00 0.00 97 1013.3
20260905112158 60 156 0.0 0.0 0.00 0.00 0.00 97 1013.2
20260905111657 60 156 0.0 0.0 0.00 0.00 0.00 97 1013.4
20260905111157 60 156 0.0 0.0 0.00 0.00 0.00 98 1013.2
20260905110656 60 156 0.0 0.0 0.00 0.00 0.00 98 1013.3
20260905110151 60 156 0.0 0.0 0.00 0.00 0.00 98 1013.1
20260905105647 60 155 0.0 0.0 0.00 0.00 0.00 98 1013.1
20260905105145 59 155 0.0 0.0 0.00 0.00 0.00 97 1013.1
20260905104641 59 155 0.0 0.0 0.00 0.00 0.00 97 1013.0
20260905104136 59 155 0.0 0.0 0.00 0.00 0.00 97 1012.7
20260905103632 60 155 0.0 0.0 0.00 0.00 0.00 97 1012.7
20260905103127 60 155 0.0 0.0 0.00 0.00 0.00 97 1012.7
20260905102623 60 155 0.0 0.0 0.00 0.00 0.00 97 1012.7
20260905102120 60 156 0.0 0.0 0.00 0.00 0.00 97 1012.5
20260905101618 60 155 0.0 0.0 0.00 0.00 0.00 97 1012.8
20260905101116 60 155 0.0 0.0 0.00 0.00 0.00 97 1012.6
20260905100612 60 155 0.0 0.0 0.00 0.00 0.00 97 1012.5
20260905100108 60 155 0.0 0.0 0.00 0.00 0.00 97 1012.6
20260905095601 60 155 0.0 0.0 0.00 0.00 0.00 97 1012.4
20260905095056 60 155 0.0 0.0 0.00 0.00 0.00 97 1012.5
20260905094551 60 155 0.0 0.0 0.00 0.00 0.00 97 1012.3
20260905094050 60 155 0.0 0.0 0.00 0.00 0.00 97 1012.5
20260905093545 60 155 0.0 0.0 0.00 0.00 0.00 97 1012.5
20260905093042 60 155 0.0 0.0 0.00 0.00 0.00 97 1012.4
20260905092541 60 155 0.0 0.0 0.00 0.00 0.00 97 1012.6
20260905092038 60 155 0.0 0.0 0.00 0.00 0.00 97 1012.4
20260905091536 60 155 0.0 0.0 0.00 0.00 0.00 97 1012.4
20260905091031 60 155 0.0 0.0 0.00 0.00 0.00 97 1012.7
20260905090531 60 155 0.0 0.0 0.00 0.00 0.00 97 1012.7
20260905090026 60 155 0.0 0.0 0.00 0.00 0.00 97 1012.7
20260905085524 60 155 0.0 0.0 0.00 0.00 0.00 97 1012.8
20260905085021 60 155 0.0 0.0 0.00 0.00 0.00 97 1012.7
20260905084520 60 155 0.0 0.0 0.00 0.00 0.00 97 1012.7
20260905084015 60 155 0.0 0.0 0.00 0.00 0.00 97 1012.8
20260905083510 61 155 0.0 0.0 0.00 0.00 0.00 97 1012.9
20260905083007 61 155 0.0 0.0 0.00 0.00 0.00 97 1012.6
20260905082502 61 155 0.0 0.0 0.00 0.00 0.00 97 1012.6
20260905081957 61 160 0.0 0.0 0.00 0.00 0.00 97 1012.6
20260905081452 61 160 0.0 0.0 0.00 0.00 0.00 97 1012.8
20260905080951 61 160 0.0 0.0 0.00 0.00 0.00 97 1012.6
20260905080446 61 160 0.0 0.0 0.00 0.00 0.00 97 1012.9
20260905075944 61 160 0.0 0.0 0.00 0.00 0.00 97 1012.9
20260905075439 61 160 0.0 0.0 0.00 0.00 0.00 97 1012.8
20260905074938 62 160 0.0 0.0 0.00 0.00 0.00 97 1012.9
20260905074434 62 160 0.0 0.0 0.00 0.00 0.00 97 1012.9
20260905073930 62 160 0.0 0.0 0.00 0.00 0.00 96 1012.7
20260905073424 62 160 0.0 0.0 0.00 0.00 0.00 96 1012.8
20260905072920 62 159 0.0 0.0 0.00 0.00 0.00 96 1012.7
20260905072415 62 160 0.0 0.0 0.00 0.00 0.00 96 1012.9
20260905071910 62 160 0.0 0.0 0.00 0.00 0.00 96 1012.8
20260905071407 62 160 0.0 0.0 0.00 0.00 0.00 96 1012.9
20260905070901 62 160 0.0 0.0 0.00 0.00 0.00 96 1012.9
20260905070358 62 156 0.0 0.0 0.00 0.00 0.00 96 1013.0
20260905065857 62 155 0.0 0.0 0.00 0.00 0.00 96 1013.0
20260905065355 62 159 0.0 0.0 0.00 0.00 0.00 95 1013.0
20260905064850 62 159 0.0 0.0 0.00 0.00 0.00 95 1013.1
20260905064346 63 159 0.0 0.0 0.00 0.00 0.00 95 1013.1
20260905063844 63 159 0.0 0.0 0.00 0.00 0.00 95 1013.1
20260905063340 63 159 0.0 0.0 0.00 0.00 0.00 95 1013.3
20260905062836 63 159 0.0 0.0 0.00 0.00 0.00 95 1013.4
20260905062331 63 159 0.0 0.0 0.00 0.00 0.00 94 1013.2
20260905061825 63 159 0.0 0.0 0.00 0.00 0.00 94 1013.0
20260905061320 64 159 0.0 0.0 0.00 0.00 0.00 94 1013.0
20260905060814 64 160 0.0 0.0 0.00 0.00 0.00 94 1013.2
20260905060311 64 160 0.0 0.0 0.00 0.00 0.00 94 1013.1
20260905055810 64 159 0.0 0.0 0.00 0.00 0.00 94 1013.0
20260905055306 64 158 0.0 0.0 0.00 0.00 0.00 94 1013.0
20260905054759 64 159 0.0 0.0 0.00 0.00 0.00 95 1012.9
20260905054256 64 160 0.0 0.0 0.00 0.00 0.00 95 1013.1
20260905053755 64 161 0.0 0.0 0.00 0.00 0.00 95 1013.2
20260905053250 64 163 0.0 0.0 0.00 0.00 0.00 94 1013.3
20260905052749 64 163 0.0 0.0 0.00 0.00 0.00 94 1013.1
20260905052244 64 163 0.0 0.0 0.00 0.00 0.00 94 1013.3
20260905051744 64 163 0.0 0.0 0.00 0.00 0.00 94 1013.3
20260905051241 64 160 0.0 0.0 0.00 0.00 0.00 94 1013.3
20260905050737 64 159 0.0 0.0 0.00 0.00 0.00 94 1013.4
20260905050234 64 160 0.0 0.0 0.00 0.00 0.00 94 1013.5
20260905045733 64 159 0.0 0.0 0.00 0.00 0.00 94 1013.4
20260905045229 64 159 0.0 0.0 0.00 0.00 0.00 94 1013.6
20260905044724 64 160 0.0 0.0 0.00 0.00 0.00 94 1013.5
20260905044219 64 159 0.0 0.0 0.00 0.00 0.00 94 1013.5
20260905043718 64 159 0.0 0.0 0.00 0.00 0.00 94 1013.4
20260905043213 64 159 0.0 0.0 0.00 0.00 0.00 94 1013.2
20260905042713 64 160 0.0 0.0 0.00 0.00 0.00 93 1013.3
20260905042212 64 160 0.0 0.0 0.00 0.00 0.00 93 1013.5
20260905041708 64 160 0.0 0.0 0.00 0.00 0.00 93 1013.5
20260905041203 64 160 0.0 0.0 0.00 0.00 0.00 93 1013.3
20260905040658 64 161 0.0 0.0 0.00 0.00 0.00 93 1013.4
20260905040156 65 161 0.0 0.0 0.00 0.00 0.00 93 1013.6
20260905035651 65 163 0.0 0.0 0.00 0.00 0.00 92 1013.4
20260905035148 65 160 0.0 0.0 0.00 0.00 0.00 92 1013.2
20260905034644 65 168 0.0 0.0 0.00 0.00 0.00 92 1013.0
20260905034143 65 158 0.0 0.0 0.00 0.00 0.00 92 1013.3
20260905033642 65 164 0.0 0.0 0.00 0.00 0.00 92 1013.5
20260905033138 65 168 0.0 0.0 0.00 0.00 0.00 91 1013.3
20260905032638 65 169 0.0 0.0 0.00 0.00 0.00 91 1013.3
20260905032132 65 168 0.0 0.0 0.00 0.00 0.00 91 1013.2
20260905031628 65 168 0.0 0.0 0.00 0.00 0.00 91 1013.3
20260905031123 65 168 0.0 0.0 0.00 0.00 0.00 91 1013.2
20260905030618 65 168 0.0 0.0 0.00 0.00 0.00 91 1013.1
20260905030114 65 166 0.0 0.0 0.00 0.00 0.00 90 1013.1
20260905025608 65 167 0.0 0.0 0.00 0.00 0.00 90 1013.3
20260905025104 65 162 0.0 1.0 0.00 0.00 0.00 89 1013.3
20260905024559 65 172 0.0 0.0 0.00 0.00 0.00 89 1013.4
20260905024054 65 169 0.0 0.0 0.00 0.00 0.00 88 1013.2
20260905023549 65 176 0.0 0.0 0.00 0.00 0.00 88 1013.3
20260905023044 65 175 0.0 0.0 0.00 0.00 0.00 87 1013.3
20260905022543 65 176 0.0 1.0 0.00 0.00 0.00 86 1013.4
20260905022039 65 174 0.0 1.0 0.00 0.00 0.00 86 1013.4
20260905021538 65 168 0.0 0.0 0.00 0.00 0.00 86 1013.4
20260905021034 66 167 0.0 0.0 0.00 0.00 0.00 85 1013.3
20260905020533 66 168 0.0 0.0 0.00 0.00 0.00 85 1013.4
20260905020029 66 167 0.0 0.0 0.00 0.00 0.00 85 1013.7
20260905015527 66 175 0.0 0.0 0.00 0.00 0.00 84 1013.7
20260905015022 66 173 0.0 0.0 0.00 0.00 0.00 84 1013.6
20260905014516 66 168 0.0 0.0 0.00 0.00 0.00 84 1013.7
20260905014012 66 168 0.0 0.0 0.00 0.00 0.00 85 1013.6
20260905013508 66 167 0.0 0.0 0.00 0.00 0.00 84 1013.5
20260905013004 66 167 0.0 0.0 0.00 0.00 0.00 83 1013.3
20260905012458 66 167 0.0 0.0 0.00 0.00 0.00 83 1013.5
20260905011954 66 167 0.0 0.0 0.00 0.00 0.00 82 1013.7
20260905011450 66 168 0.0 0.0 0.00 0.00 0.00 81 1013.5
20260905010946 66 167 0.0 0.0 0.00 0.00 0.00 81 1013.5
20260905010441 67 167 0.0 0.0 0.00 0.00 0.00 81 1013.5
20260905005936 67 167 0.0 0.0 0.00 0.00 0.00 81 1013.4
20260905005432 66 168 0.0 0.0 0.00 0.00 0.00 81 1013.6
20260905004932 66 166 0.0 0.0 0.00 0.00 0.00 81 1013.7
20260905004427 66 166 0.0 0.0 0.00 0.00 0.00 82 1013.8
20260905003922 67 166 0.0 0.0 0.00 0.00 0.00 81 1013.7
20260905003419 67 166 0.0 0.0 0.00 0.00 0.00 79 1013.4
20260905002914 67 166 0.0 0.0 0.00 0.00 0.00 78 1013.5
20260905002413 67 166 0.0 0.0 0.00 0.00 0.00 78 1013.5
20260905001908 67 166 0.0 0.0 0.00 0.00 0.00 79 1013.4
20260905001403 67 166 0.0 0.0 0.00 0.00 0.00 81 1013.3
20260905000857 67 166 0.0 0.0 0.00 0.00 0.00 79 1013.4
20260905000355 67 166 0.0 0.0 0.00 0.00 0.00 78 1013.2
20260904235848 67 166 0.0 0.0 0.00 0.00 0.00 78 1013.1
20260904235343 68 166 0.0 0.0 0.00 0.00 0.00 77 1013.3
20260904234838 68 166 0.0 0.0 0.00 0.00 0.00 76 1013.2
20260904234333 68 166 0.0 0.0 0.00 0.00 0.00 76 1013.2
20260904233828 68 166 0.0 0.0 0.00 0.00 0.00 75 1013.3
20260904233324 68 166 0.0 0.0 0.00 0.00 0.00 75 1013.2
20260904232821 68 166 0.0 0.0 0.00 0.00 0.00 75 1013.1
20260904232317 69 166 0.0 0.0 0.00 0.00 0.00 74 1013.1
20260904231813 69 166 0.0 0.0 0.00 0.00 0.00 73 1013.2
20260904231307 69 167 0.0 0.0 0.00 0.00 0.00 72 1013.2
20260904230803 69 162 0.0 0.0 0.00 0.00 0.00 72 1013.2
20260904230301 69 162 0.0 0.0 0.00 0.00 0.00 72 1013.0
20260904225756 69 156 0.0 0.0 0.00 0.00 0.00 71 1013.1
20260904225249 70 168 0.0 0.0 0.00 0.00 0.00 70 1012.9
20260904224749 70 167 0.0 0.0 0.00 0.00 0.00 70 1012.9
20260904224244 70 149 0.0 0.0 0.00 0.00 0.00 70 1012.9
20260904223744 71 165 0.0 0.0 0.00 0.00 0.00 68 1013.2
20260904223239 71 163 0.0 0.0 0.00 0.00 0.00 67 1012.8
20260904222735 72 163 0.0 1.0 0.00 0.00 0.00 66 1012.9
20260904222230 72 164 0.0 1.0 0.00 0.00 0.00 66 1012.8
20260904221729 72 183 1.0 2.0 0.00 0.00 0.00 65 1012.8
20260904221225 72 176 0.0 1.0 0.00 0.00 0.00 66 1012.7
20260904220725 72 139 0.0 1.0 0.00 0.00 0.00 65 1012.7
20260904220219 72 166 0.0 1.0 0.00 0.00 0.00 64 1012.7
20260904215719 72 217 1.0 2.0 0.00 0.00 0.00 63 1013.0
20260904215215 72 164 0.0 1.0 0.00 0.00 0.00 65 1013.1
20260904214710 73 187 1.0 1.0 0.00 0.00 0.00 66 1013.0
20260904214206 73 165 0.0 0.0 0.00 0.00 0.00 68 1012.8
20260904213704 73 140 0.0 1.0 0.00 0.00 0.00 66 1012.9
20260904213200 72 208 1.0 1.0 0.00 0.00 0.00 64 1013.0
20260904212655 73 209 1.0 2.0 0.00 0.00 0.00 65 1013.0
20260904212150 73 40 1.0 2.0 0.00 0.00 0.00 65 1012.9
20260904211644 73 169 0.0 0.0 0.00 0.00 0.00 65 1013.0
20260904211140 73 149 1.0 2.0 0.00 0.00 0.00 66 1012.8
20260904210639 73 172 1.0 1.0 0.00 0.00 0.00 66 1013.2
20260904210135 73 158 0.0 0.0 0.00 0.00 0.00 67 1013.0
20260904205631 73 235 1.0 2.0 0.00 0.00 0.00 66 1012.7
20260904205127 73 164 1.0 2.0 0.00 0.00 0.00 64 1013.0
20260904204622 73 119 1.0 3.0 0.00 0.00 0.00 65 1013.0
20260904204119 73 148 0.0 1.0 0.00 0.00 0.00 64 1013.1
20260904203614 73 195 2.0 2.0 0.00 0.00 0.00 64 1013.1
20260904203111 73 163 0.0 1.0 0.00 0.00 0.00 65 1013.1
20260904202607 74 209 2.0 2.0 0.00 0.00 0.00 66 1013.1
20260904202103 74 112 2.0 2.0 0.00 0.00 0.00 64 1013.3
20260904201602 74 173 2.0 2.0 0.00 0.00 0.00 64 1013.5
20260904201058 74 189 1.0 1.0 0.00 0.00 0.00 64 1013.4